User: anonymous   Login
Location: Voyageurs National Park
(48.5020°N, 92.9292°W)
Time: 03:53:00
(UTC-06:00)
Language:

Terra - Orbit

View from above orbital plane
View from above orbital plane
View from above satellite
View from above satellite

Ground track
Ground track

The orbit data is extracted from the following two-line orbital elements,

1 25994U 99068A   16342.82298431  .00000005  00000-0  11072-4 0  9994
2 25994  98.2051  54.6040 0000821  49.8674 310.2554 14.57111897902807
Epoch (UTC): 07 December 2016 19:45:05
Eccentricity: 0.0000821
inclination: 98.2051°
perigee height: 702 km
apogee height: 703 km
right ascension of ascending node: 54.6040°
argument of perigee: 49.8674°
revolutions per day: 14.57111897
mean anomaly at epoch: 310.2554°
orbit number at epoch: 90280

The dashed part of the orbit path shows where the satellite is in the earth's shadow,  

DLR